Shreveport Downtown, LA

10:05 AM CDT on May 28, 2017 (GMT -0500)
Shreveport Downtown

Weather History for KDTN - February, 2014

Change the Weather History Date:

Wednesday, February 26, 2014

  Actual Average (KBAD) Record (KBAD)
Temperature  
Mean Temperature 39 °F -  
Max Temperature 46 °F 59 °F 78 °F (2009)
Min Temperature 32 °F 41 °F 28 °F (2002)
Degree Days  
Heating Degree Days 26    
Moisture  
Dew Point 29 °F    
Average Humidity 68    
Maximum Humidity 87    
Minimum Humidity 40    
Precipitation  
Precipitation 0.13 in - - ()
Sea Level Pressure  
Sea Level Pressure 30.15 in    
Wind  
Wind Speed 8 mph (NNE)    
Max Wind Speed 14 mph    
Max Gust Speed 23 mph    
Visibility 10 miles    
Events Rain    
Averages and records for this station are not official NWS values.
T = Trace of Precipitation, MM = Missing Value Source: NWS Daily Summary

Daily Weather History Graph

Daily Weather History Graph

Search for Another Location

Airport or City:

Trip Planner

Search our weather history database for the weather conditions in past years. The results will help you decide how hot, cold, wet, or windy it might be!

Date:

Astronomy

Feb. 26, 2014 Rise Set
Actual Time 6:46 AM CST 6:10 PM CST
Civil Twilight 6:21 AM CST 6:34 PM CST
Nautical Twilight 5:52 AM CST 7:03 PM CST
Astronomical Twilight 5:24 AM CST 7:31 PM CST
Moon 4:25 AM CST (2/26) 3:31 PM CST (2/26)
Length of Visible Light 12h 13m
Length of Day
11h 23m
Waning Crescent, 10% of the Moon is Illuminated
Feb 26
Waning Crescent
Mar 1
New
Mar 8
First Quarter
Mar 16
Full
Mar 23
Last Quarter

Hourly Weather History & Observations

Time (CST) Temp. Windchill Dew Point Humidity Pressure Visibility Wind Dir Wind Speed Gust Speed Precip Events Conditions
12:03 AM 46.4 °F 44.3 °F 42.8 °F 87% 30.07 in 10.0 mi NNE 4.6 mph - N/A   Overcast
12:53 AM 46.0 °F 43.9 °F 42.1 °F 86% 30.08 in 10.0 mi NNE 4.6 mph - N/A   Overcast
1:53 AM 43.0 °F 38.8 °F 39.0 °F 86% 30.11 in 4.0 mi NNE 6.9 mph 20.7 mph 0.06 in Rain Rain
2:26 AM 42.8 °F 36.2 °F 37.4 °F 81% 30.13 in 6.0 mi North 12.7 mph 23.0 mph 0.06 in Rain Rain
2:37 AM 41.0 °F 35.2 °F 37.4 °F 87% 30.11 in 10.0 mi NNE 9.2 mph 23.0 mph 0.06 in Rain Light Rain
2:44 AM 41.0 °F 33.5 °F 37.4 °F 87% 30.12 in 10.0 mi NNE 13.8 mph 21.9 mph 0.06 in Rain Light Rain
2:53 AM 41.0 °F 34.3 °F 36.0 °F 82% 30.12 in 10.0 mi NNE 11.5 mph 21.9 mph 0.06 in Rain Light Rain
3:53 AM 39.9 °F 32.1 °F 35.1 °F 83% 30.13 in 10.0 mi North 13.8 mph 19.6 mph 0.01 in   Overcast
4:53 AM 39.9 °F 33.4 °F 35.1 °F 83% 30.16 in 10.0 mi NNE 10.4 mph - N/A   Overcast
5:03 AM 39.2 °F 35.0 °F 35.6 °F 87% 30.16 in 10.0 mi NNE 5.8 mph - N/A   Overcast
5:53 AM 39.0 °F 32.8 °F 33.1 °F 79% 30.17 in 10.0 mi NNE 9.2 mph - N/A   Overcast
6:53 AM 37.9 °F 30.5 °F 32.0 °F 79% 30.20 in 10.0 mi NE 11.5 mph - N/A   Overcast
7:43 AM 37.4 °F 29.3 °F 28.4 °F 70% 30.21 in 10.0 mi NNE 12.7 mph 19.6 mph N/A   Overcast
7:53 AM 37.9 °F 31.5 °F 27.0 °F 65% 30.21 in 10.0 mi NNE 9.2 mph 19.6 mph N/A   Overcast
8:53 AM 37.9 °F 31.5 °F 26.1 °F 62% 30.23 in 10.0 mi NE 9.2 mph 18.4 mph N/A   Overcast
9:53 AM 39.9 °F 33.4 °F 27.0 °F 60% 30.23 in 10.0 mi NNE 10.4 mph - N/A   Mostly Cloudy
10:53 AM 39.9 °F 33.4 °F 26.1 °F 58% 30.22 in 10.0 mi North 10.4 mph - N/A   Mostly Cloudy
11:53 AM 42.1 °F 35.7 °F 24.1 °F 49% 30.21 in 10.0 mi NNE 11.5 mph 17.3 mph N/A   Partly Cloudy
12:53 PM 42.1 °F 36.6 °F 23.0 °F 47% 30.18 in 10.0 mi NNE 9.2 mph - N/A   Clear
1:53 PM 43.0 °F 39.5 °F 23.0 °F 45% 30.15 in 10.0 mi Variable 5.8 mph - N/A   Clear
2:53 PM 45.0 °F 40.1 °F 21.9 °F 40% 30.14 in 10.0 mi NNW 9.2 mph - N/A   Clear
3:53 PM 43.0 °F 36.8 °F 19.9 °F 40% 30.12 in 10.0 mi North 11.5 mph 17.3 mph N/A   Clear
4:53 PM 42.1 °F 37.7 °F 21.0 °F 43% 30.13 in 10.0 mi NNW 6.9 mph - N/A   Clear
5:53 PM 41.0 °F 37.1 °F 21.9 °F 47% 30.13 in 10.0 mi NNE 5.8 mph - N/A   Clear
6:53 PM 39.0 °F - 21.9 °F 50% 30.13 in 10.0 mi Calm Calm - N/A   Clear
7:53 PM 37.0 °F - 24.1 °F 59% 30.14 in 10.0 mi Calm Calm - N/A   Clear
8:53 PM 36.0 °F - 25.0 °F 64% 30.15 in 10.0 mi Calm Calm - N/A   Clear
9:53 PM 34.0 °F - 26.1 °F 73% 30.15 in 10.0 mi Calm Calm - N/A   Clear
10:53 PM 32.0 °F - 26.1 °F 79% 30.16 in 10.0 mi Calm Calm - N/A   Clear
11:53 PM 32.0 °F 28.7 °F 23.0 °F 69% 30.15 in 10.0 mi WNW 3.5 mph - N/A   Clear